Location: Camerons Lookout
(40.9833°S, 175.9333°E)
Time: 20:24:48
(UTC+00:00)

USA 238 - Pass Details

Date: 14 January 2026
Orbit: 883 x 1328 km, 63.4° (Epoch: 10 January)

Event Time Altitude Azimuth Distance (km) Brightness Sun altitude
Rises 10:31:05 0° 323° (NW) 4,314 6.6 -22.3°
Reaches altitude 10° 10:34:00 10° 321° (NW) 3,327 6.0 -22.6°
Maximum altitude 10:42:08 77° 235° (SW) 1,286 4.1 -23.3°
Drops below altitude 10° 10:49:41 10° 148° (SSE) 3,091 6.5 -23.9°
Sets 10:52:18 0° 145° (SE) 3,994 7.1 -24.1°
